DEOOL EDGS-ZZZZ

Flight info

Callsign DEOOL
Flight time N/A
Altitude 3500
Route DCT
Aircraft DV20/L-VGDW/C

Departure

Time 2026-04-26 14:53
Airport Siegerland Airport (EDGS)

Arrival

Time N/A
Airport ZZZZ
Time Latitude Longitude Altitude Speed Heading
2026-04-26 14:43 50.70808 8.07742 1974 ft 0 kts 33°
2026-04-26 14:48 50.70814 8.07747 1973 ft 4 kts 21°
2026-04-26 14:48 50.70828 8.07737 1975 ft 1 kts 316°
2026-04-26 14:48 50.70851 8.07695 1971 ft 8 kts 310°
2026-04-26 14:49 50.70889 8.07619 1971 ft 9 kts 309°
2026-04-26 14:49 50.70925 8.07548 1975 ft 9 kts 307°
2026-04-26 14:49 50.70968 8.07463 1973 ft 11 kts 310°
2026-04-26 14:49 50.71018 8.07360 1972 ft 12 kts 307°
2026-04-26 14:50 50.71070 8.07254 1971 ft 13 kts 311°
2026-04-26 14:50 50.71148 8.07202 1967 ft 12 kts
2026-04-26 14:50 50.71192 8.07232 1966 ft 0 kts 38°
2026-04-26 14:50 50.71191 8.07232 1966 ft 0 kts 38°
2026-04-26 14:51 50.71214 8.07284 1967 ft 14 kts 75°
2026-04-26 14:51 50.71190 8.07444 1968 ft 18 kts 128°
2026-04-26 14:52 50.71030 8.07760 1973 ft 55 kts 126°
2026-04-26 14:52 50.70734 8.08331 2028 ft 73 kts 128°
2026-04-26 14:52 50.70406 8.08917 2189 ft 72 kts 127°
2026-04-26 14:52 50.70091 8.09549 2292 ft 75 kts 126°
2026-04-26 14:53 50.70093 8.10244 2451 ft 68 kts 53°
2026-04-26 14:53 50.70422 8.10825 2552 ft 76 kts 28°
2026-04-26 14:53 50.70919 8.10615 2675 ft 81 kts 323°
2026-04-26 14:53 50.71346 8.10032 2817 ft 80 kts 319°
2026-04-26 14:54 50.71765 8.09456 2914 ft 84 kts 323°
2026-04-26 14:54 50.72267 8.08847 2898 ft 97 kts 325°
2026-04-26 14:54 50.72812 8.08245 2989 ft 94 kts 328°
2026-04-26 14:54 50.73368 8.07671 2998 ft 96 kts 331°
2026-04-26 14:55 50.73946 8.07139 2999 ft 96 kts 332°
2026-04-26 14:55 50.74551 8.06671 3048 ft 96 kts 341°
2026-04-26 14:55 50.75185 8.06419 3118 ft 93 kts 352°
2026-04-26 14:55 50.75845 8.06355 3145 ft 96 kts
2026-04-26 14:56 50.76482 8.06407 3191 ft 90 kts
2026-04-26 14:56 50.77149 8.06543 3110 ft 94 kts 11°
2026-04-26 14:56 50.77795 8.06783 3036 ft 99 kts 17°
2026-04-26 14:56 50.78450 8.07112 2997 ft 100 kts 20°
2026-04-26 14:57 50.79105 8.07413 2973 ft 99 kts 14°
2026-04-26 14:57 50.79787 8.07593 2988 ft 98 kts
2026-04-26 14:57 50.80475 8.07668 2969 ft 102 kts
2026-04-26 14:57 50.81177 8.07643 2970 ft 100 kts 359°
2026-04-26 14:58 50.81856 8.07433 2946 ft 103 kts 335°
2026-04-26 14:58 50.82447 8.06775 2951 ft 103 kts 326°
2026-04-26 14:58 50.83014 8.06087 2998 ft 102 kts 324°
2026-04-26 14:58 50.83581 8.05402 2983 ft 104 kts 324°
2026-04-26 14:59 50.84155 8.04697 2965 ft 104 kts 321°
2026-04-26 14:59 50.84780 8.04106 2966 ft 105 kts 334°
2026-04-26 14:59 50.85449 8.03625 2968 ft 105 kts 338°
2026-04-26 14:59 50.85895 8.03303 2954 ft 106 kts 332°
2026-04-26 15:00 50.86641 8.02290 2922 ft 107 kts 315°
2026-04-26 15:00 50.87177 8.01527 2965 ft 102 kts 326°
2026-04-26 15:00 50.87745 8.00855 3034 ft 101 kts 324°
2026-04-26 15:00 50.88319 8.00224 3029 ft 100 kts 328°
2026-04-26 15:01 50.88919 7.99638 3050 ft 103 kts 331°
2026-04-26 15:01 50.89542 7.99114 3040 ft 101 kts 334°
2026-04-26 15:01 50.90186 7.98613 2995 ft 105 kts 333°
2026-04-26 15:01 50.90842 7.98095 2947 ft 106 kts 333°
2026-04-26 15:02 50.91490 7.97623 3014 ft 97 kts 340°
2026-04-26 15:02 50.92140 7.97299 3021 ft 100 kts 345°
2026-04-26 15:02 50.92815 7.97060 3035 ft 98 kts 349°
2026-04-26 15:02 50.93491 7.96888 3013 ft 98 kts 352°
2026-04-26 15:03 50.94181 7.96772 3010 ft 100 kts 355°
2026-04-26 15:03 50.94880 7.96706 3001 ft 101 kts 357°
2026-04-26 15:03 50.95575 7.96663 3015 ft 100 kts 356°
2026-04-26 15:03 50.96283 7.96563 2980 ft 103 kts 351°
2026-04-26 15:04 50.97004 7.96354 2875 ft 106 kts 347°
2026-04-26 15:04 50.97711 7.96056 2901 ft 104 kts 342°
2026-04-26 15:04 50.98373 7.95647 2882 ft 103 kts 338°
2026-04-26 15:04 50.99037 7.95191 2832 ft 105 kts 334°
2026-04-26 15:05 50.99667 7.94652 2879 ft 100 kts 333°
2026-04-26 15:05 51.00087 7.94311 2833 ft 102 kts 333°
2026-04-26 15:05 51.00910 7.93617 2806 ft 101 kts 330°
2026-04-26 15:05 51.01507 7.93051 2807 ft 99 kts 329°
2026-04-26 15:06 51.02056 7.92403 2813 ft 98 kts 319°
2026-04-26 15:06 51.02548 7.91633 2783 ft 101 kts 314°
2026-04-26 15:06 51.03021 7.90831 2783 ft 98 kts 314°
2026-04-26 15:06 51.03503 7.90045 2763 ft 101 kts 316°
2026-04-26 15:07 51.04513 7.88480 2736 ft 102 kts 319°
2026-04-26 15:07 51.05099 7.87836 2725 ft 102 kts 334°
2026-04-26 15:07 51.05755 7.87493 2757 ft 98 kts 348°
2026-04-26 15:08 51.06416 7.87353 2807 ft 95 kts 356°
2026-04-26 15:08 51.07077 7.87432 2805 ft 98 kts 12°
2026-04-26 15:08 51.07703 7.87836 2823 ft 95 kts 27°
2026-04-26 15:08 51.08294 7.88353 2847 ft 96 kts 28°
2026-04-26 15:09 51.08859 7.88946 2840 ft 100 kts 33°
2026-04-26 15:09 51.09408 7.89645 2832 ft 102 kts 39°
2026-04-26 15:09 51.09919 7.90441 2768 ft 106 kts 42°
2026-04-26 15:09 51.10481 7.91192 2732 ft 104 kts 36°
2026-04-26 15:10 51.11099 7.91785 2674 ft 105 kts 27°
2026-04-26 15:10 51.11503 7.92148 2631 ft 96 kts 28°
2026-04-26 15:10 51.12271 7.92816 2435 ft 98 kts 30°
2026-04-26 15:10 51.12811 7.93486 2348 ft 98 kts 41°
2026-04-26 15:11 51.13308 7.94256 2247 ft 100 kts 43°
2026-04-26 15:11 51.13786 7.95021 2184 ft 93 kts 42°
2026-04-26 15:11 51.14251 7.95711 1990 ft 87 kts 36°
2026-04-26 15:11 51.14743 7.96152 1864 ft 77 kts 358°
2026-04-26 15:12 51.15138 7.95618 1601 ft 82 kts 295°
2026-04-26 15:12 51.15172 7.94734 1403 ft 83 kts 256°
2026-04-26 15:12 51.14846 7.93946 1122 ft 86 kts 221°
2026-04-26 15:12 51.14393 7.93477 1058 ft 68 kts 218°
2026-04-26 15:13 51.13987 7.93037 1183 ft 73 kts 214°
2026-04-26 15:13 51.13544 7.92629 1323 ft 77 kts 211°
2026-04-26 15:13 51.13025 7.92629 1377 ft 79 kts 120°
2026-04-26 15:13 51.13114 7.93399 1472 ft 73 kts 49°
2026-04-26 15:14 51.13495 7.93990 1511 ft 79 kts 36°
2026-04-26 15:14 51.13938 7.94592 1526 ft 85 kts 39°
2026-04-26 15:14 51.14392 7.95199 1543 ft 88 kts 26°
2026-04-26 15:14 51.14876 7.95079 1516 ft 69 kts 303°
2026-04-26 15:15 51.14924 7.94293 1266 ft 76 kts 261°
2026-04-26 15:15 51.14616 7.93689 1093 ft 77 kts 201°
2026-04-26 15:15 51.14213 7.93283 1172 ft 59 kts 218°
2026-04-26 15:15 51.13834 7.93020 1322 ft 60 kts 204°
2026-04-26 15:16 51.13448 7.92859 1431 ft 57 kts 195°
2026-04-26 15:16 51.13066 7.92766 1549 ft 59 kts 187°
2026-04-26 15:16 51.12585 7.92650 1565 ft 78 kts 203°
2026-04-26 15:16 51.12143 7.92151 1651 ft 78 kts 228°
2026-04-26 15:17 51.11823 7.91691 1898 ft 56 kts 226°
2026-04-26 15:17 51.11615 7.91445 1924 ft 58 kts 218°
2026-04-26 15:17 51.11170 7.91194 1360 ft 44 kts 146°
2026-04-26 15:17 51.11152 7.91455 1992 ft 94 kts 90°